Weather History for Burlington, CO

Change the Weather History Date:

Friday, February 28, 2014

  Actual Average Record
Temperature  
Mean Temperature 40 °F 35 °F  
Max Temperature 58 °F 49 °F 80 °F (1972)
Min Temperature 22 °F 21 °F -17 °F (1960)
Degree Days  
Heating Degree Days 25    
Moisture  
Dew Point 23 °F    
Average Humidity 69    
Maximum Humidity 85    
Minimum Humidity 36    
Precipitation  
Precipitation 0.00 in 0.02 in 0.47 in (1958)
Month to date precipitation 0.10 0.42  
Year to date precipitation 0.43 0.80  
Sea Level Pressure  
Sea Level Pressure 29.76 in    
Wind  
Wind Speed 11 mph (NNE)    
Max Wind Speed 28 mph    
Max Gust Speed 34 mph    
Visibility 10 miles    
Events      
T = Trace of Precipitation, MM = Missing Value Source: NWS Daily Summary

Daily Weather History Graph

Daily Weather History Graph

Search for Another Location

Airport:

Trip Planner

Search our weather history database for the weather conditions in past years. The results will help you decide how hot, cold, wet, or windy it might be!

Date:

Astronomy

Feb. 28, 2014 Rise Set
Actual Time 6:23 AM MST 5:40 PM MST
Civil Twilight 5:56 AM MST 6:07 PM MST
Nautical Twilight 5:25 AM MST 6:38 PM MST
Astronomical Twilight 4:54 AM MST 7:09 PM MST
Moon 5:39 AM MST (2/28) 5:19 PM MST (2/28)
Length of Visible Light 12h 11m
Length of Day
11h 17m
Waning Crescent, 0% of the Moon is Illuminated
Feb 28
Waning Crescent
Mar 1
New
Mar 8
First Quarter
Mar 16
Full
Mar 23
Last Quarter

Hourly Weather History & Observations

Time (MST) Temp. Windchill Dew Point Humidity Pressure Visibility Wind Dir Wind Speed Gust Speed Precip Events Conditions
12:53 AM 28.9 °F 23.9 °F 19.9 °F 69% 29.52 in 10.0 mi NNE 4.6 mph - N/A   Clear
1:53 AM 26.1 °F 18.4 °F 19.0 °F 75% 29.51 in 10.0 mi NE 6.9 mph - N/A   Clear
2:53 AM 27.0 °F 20.5 °F 19.0 °F 72% 29.51 in 10.0 mi NNE 5.8 mph - N/A   Clear
3:53 AM 26.1 °F 21.9 °F 19.0 °F 75% 29.54 in 10.0 mi North 3.5 mph - N/A   Clear
4:53 AM 23.0 °F 13.1 °F 18.0 °F 81% 29.59 in 10.0 mi WNW 9.2 mph - N/A   Clear
5:53 AM 25.0 °F 13.6 °F 19.9 °F 81% 29.60 in 10.0 mi WNW 12.7 mph - N/A   Clear
6:53 AM 28.0 °F 17.5 °F 21.9 °F 78% 29.63 in 10.0 mi WNW 12.7 mph - N/A   Clear
7:53 AM 39.0 °F 32.8 °F 27.0 °F 62% 29.62 in 10.0 mi NW 9.2 mph - N/A   Clear
8:53 AM 48.9 °F - 28.9 °F 46% 29.65 in 10.0 mi NNW 11.5 mph - N/A   Clear
9:53 AM 57.0 °F - 30.0 °F 36% 29.67 in 10.0 mi North 18.4 mph 24.2 mph N/A   Clear
10:53 AM 55.0 °F - 30.9 °F 40% 29.70 in 10.0 mi North 27.6 mph - N/A   Scattered Clouds
11:53 AM 55.0 °F - 32.0 °F 42% 29.72 in 10.0 mi NNE 24.2 mph 34.5 mph N/A   Clear
12:53 PM 45.0 °F 36.9 °F 28.0 °F 52% 29.77 in 10.0 mi NNE 20.7 mph - N/A   Clear
1:53 PM 42.1 °F 33.1 °F 26.1 °F 53% 29.80 in 10.0 mi NNE 20.7 mph - N/A   Clear
2:53 PM 39.0 °F 29.9 °F 26.1 °F 60% 29.83 in 10.0 mi NNE 17.3 mph - N/A   Clear
3:53 PM 35.1 °F 24.1 °F 25.0 °F 67% 29.85 in 10.0 mi NNE 19.6 mph - N/A   Clear
4:51 PM 32.0 °F 21.6 °F 23.0 °F 69% 29.83 in 10.0 mi NE 15.0 mph - N/A   Mostly Cloudy
4:53 PM 30.9 °F 20.2 °F 23.0 °F 72% 29.91 in 10.0 mi NE 15.0 mph - N/A   Mostly Cloudy
5:10 PM 30.0 °F 18.7 °F 23.0 °F 75% 29.83 in 10.0 mi NE 16.1 mph - N/A   Overcast
5:53 PM 28.0 °F 17.0 °F 21.9 °F 78% 29.93 in 10.0 mi ENE 13.8 mph - N/A   Overcast
6:34 PM 27.0 °F 15.6 °F 21.9 °F 81% 29.88 in 10.0 mi ENE 13.8 mph - N/A   Overcast
6:53 PM 27.0 °F 16.1 °F 21.9 °F 81% 29.96 in 10.0 mi East 12.7 mph - N/A   Overcast
7:53 PM 26.1 °F 15.6 °F 21.9 °F 84% 29.95 in 10.0 mi ENE 11.5 mph - N/A   Overcast
8:53 PM 25.0 °F 14.2 °F 21.0 °F 85% 29.96 in 10.0 mi ENE 11.5 mph - N/A   Overcast
9:53 PM 25.0 °F 14.2 °F 21.0 °F 85% 29.94 in 10.0 mi East 11.5 mph - N/A   Overcast
10:53 PM 25.0 °F 14.2 °F 21.0 °F 85% 29.94 in 10.0 mi East 11.5 mph - N/A   Overcast
11:53 PM 24.1 °F 12.5 °F 19.9 °F 84% 29.93 in 10.0 mi East 12.7 mph - N/A   Overcast